Location: Unspecified
(29.9680°N, 0.0000°E)
Time: 23:35:43
(UTC+00:00)

Courier 1B - All Passes

Search period start: 19 June 2019 00:00
Search period end: 29 June 2019 00:00
Orbit: 963 x 1209 km, 28.3° (Epoch: 18 June)

Date Brightness Start Highest point End Pass type
(mag) Time Alt. Az. Time Alt. Az. Time Alt. Az.
19 Jun - 01:52:36 10° W 01:58:49 26° SSW 02:04:53 10° SSE night (unlit)
19 Jun - 17:22:42 10° SSW 17:28:30 27° SSE 17:34:36 10° E daylight
19 Jun - 19:15:04 10° WSW 19:22:16 60° SSE 19:29:52 10° E visible
19 Jun - 21:08:58 10° W 21:16:34 80° S 21:24:28 10° E visible
19 Jun - 23:03:16 10° W 23:10:59 66° SSW 23:18:45 10° ESE visible
20 Jun - 00:58:10 10° W 01:05:01 33° SSW 01:11:46 10° SE night (unlit)
20 Jun - 02:57:48 10° SW 02:58:36 10° SW 02:59:24 10° SSW night (unlit)
20 Jun - 16:29:58 10° SSW 16:34:51 20° SSE 16:39:55 10° ESE daylight
20 Jun - 18:21:32 10° SW 18:28:25 51° SSE 18:35:44 10° E daylight
20 Jun - 20:15:08 10° W 20:22:35 78° S 20:30:25 10° E visible
20 Jun - 22:09:20 10° W 22:17:00 73° S 22:24:51 10° ESE visible
21 Jun - 00:03:55 10° W 00:11:10 42° SSW 00:18:24 10° SE visible
21 Jun - 02:00:38 10° WSW 02:04:52 15° SSW 02:09:03 10° S night (unlit)
21 Jun - 15:37:52 10° S 15:41:14 14° SSE 15:44:41 10° ESE daylight
21 Jun - 17:28:10 10° SW 17:34:39 41° SSE 17:41:33 10° E daylight
21 Jun - 19:21:23 10° WSW 19:28:38 73° S 19:36:20 10° E visible
21 Jun - 21:15:27 10° W 21:23:01 77° S 21:30:53 10° ESE visible
21 Jun - 23:09:50 10° W 23:17:17 50° SSW 23:24:48 10° SE visible
22 Jun - 01:05:31 10° WSW 01:11:06 21° SSW 01:16:39 10° SSE night (unlit)
22 Jun - 16:34:58 10° SW 16:40:57 32° SSE 16:47:15 10° E daylight
22 Jun - 18:27:43 10° WSW 18:34:45 66° SSE 18:42:15 10° E daylight
22 Jun - 20:21:38 10° W 20:29:02 80° S 20:36:50 10° E visible
22 Jun - 22:15:52 10° W 22:23:21 59° SSW 22:31:03 10° ESE visible
23 Jun - 00:10:55 10° W 00:17:18 28° SSW 00:23:42 10° SSE visible
23 Jun - 15:42:03 10° SSW 15:47:20 24° SSE 15:52:49 10° E daylight
23 Jun - 17:34:09 10° WSW 17:40:55 57° SSE 17:48:09 10° E daylight
23 Jun - 19:27:51 10° W 19:35:05 80° S 19:42:46 10° E visible
23 Jun - 21:21:59 10° W 21:29:25 67° SSW 21:37:11 10° ESE visible
23 Jun - 23:16:38 10° W 23:23:28 35° SSW 23:30:26 10° SE visible
24 Jun - 01:14:44 10° SW 01:17:10 12° SSW 01:19:36 10° SSW night (unlit)
24 Jun - 14:49:29 10° S 14:53:43 18° SSE 14:58:04 10° ESE daylight
24 Jun - 16:40:43 10° SW 16:47:10 47° SSE 16:54:02 10° E daylight
24 Jun - 18:34:08 10° WSW 18:41:10 77° S 18:48:42 10° E daylight
24 Jun - 20:28:09 10° W 20:35:29 73° S 20:43:12 10° ESE visible
24 Jun - 22:22:32 10° W 22:29:37 43° SSW 22:36:55 10° SE visible
25 Jun - 00:18:48 10° WSW 00:23:23 17° SSW 00:28:01 10° S night (unlit)
25 Jun - 13:57:47 10° S 14:00:09 12° SSE 14:02:33 10° SE daylight
25 Jun - 15:47:26 10° SW 15:53:29 38° SSE 15:59:53 10° E daylight
25 Jun - 17:40:28 10° WSW 17:47:19 71° S 17:54:38 10° E daylight
25 Jun - 19:34:23 10° W 19:41:33 78° S 19:49:11 10° E visible
25 Jun - 21:28:34 10° W 21:35:45 51° SSW 21:43:14 10° SE visible
25 Jun - 23:23:57 10° WSW 23:29:36 22° SSW 23:35:22 10° SSE visible
26 Jun - 14:54:19 10° SSW 14:59:51 29° SSE 15:05:39 10° E daylight
26 Jun - 16:46:53 10° WSW 16:53:31 63° SSE 17:00:35 10° E daylight
26 Jun - 18:40:39 10° W 18:47:38 80° S 18:55:08 10° E daylight
26 Jun - 20:34:43 10° W 20:41:52 60° SSW 20:49:25 10° ESE visible
26 Jun - 22:29:31 10° W 22:35:48 29° SSW 22:42:16 10° SSE visible
27 Jun - 14:01:27 10° SSW 14:06:17 22° SSE 14:11:14 10° ESE daylight
27 Jun - 15:53:22 10° WSW 15:59:47 54° SSE 16:06:33 10° E daylight
27 Jun - 17:46:57 10° W 17:53:47 79° S 18:01:05 10° E daylight
27 Jun - 19:40:56 10° W 19:47:59 67° SSW 19:55:30 10° ESE visible
27 Jun - 21:35:23 10° W 21:41:59 36° SSW 21:48:53 10° SE visible
27 Jun - 23:32:50 10° SW 23:35:43 12° SSW 23:38:38 10° S visible
28 Jun - 13:09:01 10° S 13:12:44 16° SSE 13:16:27 10° ESE daylight
28 Jun - 14:59:58 10° SW 15:06:07 44° SSE 15:12:31 10° E daylight
28 Jun - 16:53:17 10° WSW 16:59:58 75° S 17:07:04 10° E daylight
28 Jun - 18:47:12 10° W 18:54:07 74° S 19:01:31 10° ESE daylight
28 Jun - 20:41:24 10° W 20:48:11 43° SSW 20:55:19 10° SE visible
28 Jun - 22:37:20 10° WSW 22:41:57 17° SSW 22:46:40 10° S visible
